Starlink 1114

operational
NORAD ID: 44927 Int'l Des: 2020-001 Owner: SPXS Country: US Constellation: starlink
LEOCIRCULARSTARLINK_TYPE

Starlink 1114について

説明を読み込み中...

リアルタイム位置

3D地球を読み込み中...

次回通過

高度履歴

Altitude vs Time

uPlot chart will show altitude changes over time

軌道要素

1 44927U 20001P 25258.15471696 .00000314 00000-0 39941-4 0 9998
2 44927 53.0562 54.6272 0001336 88.4142 271.7000 15.06397725313396
Epoch: Sep 15, 2025 • Age: 14 hours

現在のステータス

高度 552.4 km
速度 7.59 km/s
衛星直下点 -17.78°S, 133.96°E
打ち上げ日 Jan 7, 2020
運用期間 5.6 years
タイプ internet

技術仕様

分類 Payload
質量 260.00 kg
乾燥質量 248.00 kg
総質量 260.00 kg
長さ 0.20 m
直径 2.80 m
スパン 9.00 m
形状 Box + pan
製造者 SPXS
バスタイプ Starlink
フェーズステータス In Orbit
所有者/国 SPXS/US

大規模コンステレーション

Loading constellations...